When you browse on this site, cookies collect data to enhance your experience and personalize the content and advertising you see.
Visit our Privacy Policy to learn more. By continuing to use the site, you agree to this use of cookies and data.
  • In United Kingdom
  • List of Countries
  • For 7 days
  • Water Temperature
  • Weather Map
  • Weather Widgets
  • user-avatar
    Login

    Hourly Weather Balod

    Today, 25 August, Sunday

    Time Temperature Precipitation Wind Pressure Humidity
    00:00 +26°C° 0.1 mm 4 mps 725 mmHg 91%
    01:00 +25°C° 0.1 mm 4 mps 725 mmHg 92%
    02:00 +25°C° 0.1 mm 3 mps 724 mmHg 93%
    03:00 +25°C° 0.1 mm 3 mps 724 mmHg 94%
    04:00 +25°C° 0.1 mm 3 mps 725 mmHg 94%
    05:00 +25°C° 0.1 mm 3 mps 725 mmHg 94%
    06:00 +25°C° 0 mm 3 mps 725 mmHg 93%
    07:00 +26°C° 0 mm 4 mps 725 mmHg 92%
    08:00 +26°C° 0 mm 4 mps 726 mmHg 91%
    09:00 +27°C° 0.1 mm 4 mps 726 mmHg 88%
    10:00 +27°C° 0.1 mm 4 mps 726 mmHg 85%
    11:00 +28°C° 0.1 mm 4 mps 726 mmHg 82%
    12:00 +29°C° 0.6 mm 4 mps 725 mmHg 80%
    13:00 +29°C° 0.6 mm 5 mps 724 mmHg 79%
    14:00 +30°C° 0.6 mm 5 mps 724 mmHg 77%
    15:00 +29°C° 0.7 mm 5 mps 724 mmHg 80%
    16:00 +28°C° 0.7 mm 5 mps 723 mmHg 83%
    17:00 +28°C° 0.7 mm 5 mps 723 mmHg 85%
    18:00 +27°C° 0 mm 4 mps 724 mmHg 88%
    19:00 +26°C° 0 mm 4 mps 724 mmHg 91%
    20:00 +25°C° 0 mm 3 mps 725 mmHg 93%
    21:00 +25°C° 0 mm 3 mps 725 mmHg 93%
    22:00 +25°C° 0 mm 3 mps 725 mmHg 93%
    23:00 +25°C° 0 mm 3 mps 725 mmHg 93%

    Tomorrow, 26 August, Monday

    Time Temperature Precipitation Wind Pressure Humidity
    00:00 +25°C° 0 mm 4 mps 725 mmHg 93%
    01:00 +25°C° 0 mm 4 mps 725 mmHg 93%
    02:00 +25°C° 0 mm 4 mps 724 mmHg 92%
    03:00 +25°C° 0 mm 4 mps 724 mmHg 92%
    04:00 +25°C° 0 mm 4 mps 725 mmHg 92%
    05:00 +25°C° 0 mm 4 mps 725 mmHg 92%
    06:00 +25°C° 0 mm 4 mps 725 mmHg 90%
    07:00 +25°C° 0 mm 4 mps 725 mmHg 89%
    08:00 +26°C° 0 mm 4 mps 726 mmHg 88%
    09:00 +27°C° 0 mm 4 mps 726 mmHg 85%
    10:00 +28°C° 0 mm 4 mps 726 mmHg 82%
    11:00 +28°C° 0 mm 4 mps 726 mmHg 79%
    12:00 +29°C° 0.2 mm 5 mps 725 mmHg 79%
    13:00 +29°C° 0.2 mm 5 mps 725 mmHg 78%
    14:00 +29°C° 0.2 mm 5 mps 724 mmHg 77%
    15:00 +29°C° 0 mm 5 mps 724 mmHg 78%
    16:00 +28°C° 0 mm 5 mps 723 mmHg 79%
    17:00 +28°C° 0 mm 5 mps 723 mmHg 80%
    18:00 +27°C° 0 mm 4 mps 724 mmHg 82%
    19:00 +27°C° 0 mm 4 mps 724 mmHg 85%
    20:00 +26°C° 0 mm 4 mps 725 mmHg 87%
    21:00 +26°C° 0 mm 4 mps 725 mmHg 87%
    22:00 +25°C° 0 mm 4 mps 725 mmHg 88%
    23:00 +25°C° 0 mm 4 mps 725 mmHg 88%

    Day after tomorrow, 27 August, Tuesday

    Time Temperature Precipitation Wind Pressure Humidity
    00:00 +25°C° 0 mm 4 mps 725 mmHg 88%
    01:00 +23°C° 0 mm 4 mps 725 mmHg 88%
    02:00 +23°C° 0 mm 4 mps 725 mmHg 88%
    03:00 +23°C° 0 mm 4 mps 725 mmHg 88%
    04:00 +23°C° 0 mm 4 mps 725 mmHg 88%
    05:00 +23°C° 0 mm 4 mps 724 mmHg 88%
    06:00 +25°C° 0 mm 4 mps 725 mmHg 86%
    07:00 +25°C° 0 mm 5 mps 725 mmHg 85%
    08:00 +26°C° 0 mm 5 mps 726 mmHg 84%
    09:00 +27°C° 0 mm 5 mps 726 mmHg 80%
    10:00 +28°C° 0 mm 5 mps 726 mmHg 76%
    11:00 +29°C° 0 mm 5 mps 726 mmHg 73%
    12:00 +29°C° 0 mm 5 mps 725 mmHg 73%
    13:00 +29°C° 0 mm 5 mps 724 mmHg 74%
    14:00 +29°C° 0 mm 5 mps 724 mmHg 74%
    15:00 +29°C° 0 mm 5 mps 723 mmHg 76%
    16:00 +28°C° 0 mm 4 mps 723 mmHg 77%
    17:00 +28°C° 0 mm 4 mps 723 mmHg 79%
    18:00 +27°C° 0 mm 4 mps 724 mmHg 82%
    19:00 +27°C° 0 mm 3 mps 725 mmHg 85%
    20:00 +26°C° 0 mm 3 mps 725 mmHg 88%
    21:00 +26°C° 0 mm 3 mps 726 mmHg 88%
    22:00 +25°C° 0 mm 4 mps 726 mmHg 88%
    23:00 +25°C° 0 mm 4 mps 726 mmHg 88%

    28 August, Wednesday

    Time Temperature Precipitation Wind Pressure Humidity
    00:00 +25°C° 0 mm 4 mps 726 mmHg 89%
    01:00 +24°C° 0 mm 3 mps 725 mmHg 89%
    02:00 +24°C° 0 mm 3 mps 725 mmHg 90%
    03:00 +24°C° 0 mm 3 mps 725 mmHg 91%
    04:00 +24°C° 0 mm 3 mps 725 mmHg 91%
    05:00 +24°C° 0 mm 2 mps 725 mmHg 92%
    06:00 +25°C° 0 mm 3 mps 726 mmHg 88%
    07:00 +26°C° 0 mm 3 mps 726 mmHg 85%
    08:00 +27°C° 0 mm 3 mps 727 mmHg 81%
    09:00 +28°C° 0 mm 3 mps 727 mmHg 77%
    10:00 +30°C° 0 mm 4 mps 727 mmHg 72%
    11:00 +32°C° 0 mm 4 mps 727 mmHg 68%
    12:00 +32°C° 0 mm 5 mps 726 mmHg 65%
    13:00 +33°C° 0 mm 5 mps 725 mmHg 62%
    14:00 +34°C° 0 mm 5 mps 724 mmHg 60%
    15:00 +33°C° 0 mm 5 mps 724 mmHg 64%
    16:00 +32°C° 0 mm 4 mps 724 mmHg 68%
    17:00 +30°C° 0 mm 4 mps 724 mmHg 72%
    18:00 +29°C° 0 mm 3 mps 725 mmHg 75%
    19:00 +28°C° 0 mm 3 mps 725 mmHg 77%
    20:00 +27°C° 0 mm 3 mps 726 mmHg 80%
    21:00 +27°C° 0.1 mm 3 mps 726 mmHg 82%
    22:00 +26°C° 0.1 mm 3 mps 726 mmHg 84%
    23:00 +26°C° 0.1 mm 2 mps 726 mmHg 86%

    29 August, Thursday

    Time Temperature Precipitation Wind Pressure Humidity
    00:00 +26°C° 1 mm 2 mps 725 mmHg 88%
    01:00 +26°C° 1 mm 2 mps 725 mmHg 89%
    02:00 +26°C° 1 mm 1 mps 725 mmHg 91%
    03:00 +25°C° 0.5 mm 2 mps 725 mmHg 92%
    04:00 +25°C° 0.5 mm 2 mps 725 mmHg 92%
    05:00 +25°C° 0.5 mm 2 mps 725 mmHg 93%
    06:00 +25°C° 0.8 mm 2 mps 725 mmHg 93%
    07:00 +26°C° 0.8 mm 2 mps 726 mmHg 92%
    08:00 +26°C° 0.8 mm 2 mps 726 mmHg 92%
    09:00 +26°C° 1.1 mm 2 mps 726 mmHg 90%
    10:00 +27°C° 1.1 mm 2 mps 726 mmHg 89%
    11:00 +27°C° 1.1 mm 3 mps 726 mmHg 87%
    12:00 +28°C° 0.8 mm 3 mps 725 mmHg 84%
    13:00 +29°C° 0.8 mm 3 mps 725 mmHg 81%
    14:00 +30°C° 0.8 mm 3 mps 724 mmHg 78%
    15:00 +29°C° 2.7 mm 3 mps 724 mmHg 82%
    16:00 +28°C° 2.7 mm 3 mps 724 mmHg 87%
    17:00 +27°C° 2.7 mm 3 mps 723 mmHg 91%
    18:00 +27°C° 0.1 mm 3 mps 724 mmHg 91%
    19:00 +27°C° 0.1 mm 3 mps 724 mmHg 92%
    20:00 +26°C° 0.1 mm 3 mps 725 mmHg 93%
    21:00 +26°C° 0 mm 3 mps 725 mmHg 93%
    22:00 +26°C° 0 mm 2 mps 725 mmHg 94%
    23:00 +26°C° 0 mm 2 mps 725 mmHg 95%

    30 August, Friday

    Time Temperature Precipitation Wind Pressure Humidity
    00:00 +26°C° 0 mm 2 mps 724 mmHg 95%
    01:00 +26°C° 0 mm 2 mps 724 mmHg 95%
    02:00 +26°C° 0 mm 2 mps 723 mmHg 95%
    03:00 +26°C° 0.5 mm 3 mps 723 mmHg 95%
    04:00 +26°C° 0.5 mm 3 mps 723 mmHg 96%
    05:00 +25°C° 0.5 mm 3 mps 723 mmHg 96%
    06:00 +26°C° 1 mm 3 mps 724 mmHg 94%
    07:00 +27°C° 1 mm 3 mps 724 mmHg 92%
    08:00 +27°C° 1 mm 3 mps 725 mmHg 90%
    09:00 +29°C° 0.1 mm 3 mps 724 mmHg 85%
    10:00 +30°C° 0.1 mm 3 mps 724 mmHg 80%
    11:00 +31°C° 0.1 mm 3 mps 724 mmHg 74%
    12:00 +33°C° 0.1 mm 3 mps 723 mmHg 73%
    13:00 +33°C° 0.1 mm 3 mps 722 mmHg 71%
    14:00 +34°C° 0.1 mm 3 mps 722 mmHg 69%
    15:00 +33°C° 1.4 mm 3 mps 721 mmHg 74%
    16:00 +31°C° 1.4 mm 3 mps 721 mmHg 79%
    17:00 +30°C° 1.4 mm 3 mps 721 mmHg 83%
    18:00 +29°C° 1.7 mm 3 mps 722 mmHg 86%
    19:00 +29°C° 1.7 mm 3 mps 722 mmHg 88%
    20:00 +28°C° 1.7 mm 3 mps 723 mmHg 90%
    21:00 +28°C° 0.9 mm 3 mps 723 mmHg 91%
    22:00 +27°C° 0.9 mm 3 mps 723 mmHg 92%
    23:00 +27°C° 0.9 mm 2 mps 723 mmHg 93%
    Show more